sat.trackr.live / text

‹ back to catalog

STARLINK-6121

NORAD 56129 · 2023-046AP

PAYLOAD ACTIVE UNKNOWN

§ Identity

Operator
Country
US
Launch date
2023-03-29
Launch site
AFETR
Launch vehicle
Mass (kg)
RCS (m²)

Purposes: comms

External: N2YO · Heavens-Above · Gunter

§ Orbital elements

Epoch: 2026-09-19T21:31:02.110080Z

Period
94.27 min
Inclination
43.0016°
Eccentricity
0.0001369
Mean motion
15.27578387 rev/d
Perigee alt
482.1 km
Apogee alt
484.0 km
Semi-major
6,861.2 km
B*
3.9870e-5
RAAN
78.9818°
Arg perigee
261.2938°
Mean anomaly
98.7758°
Rev number
19,249

§ Raw data

STARLINK-61211 56129U 23046AP  26262.89655220  .00000835  00000+0  39870-4 0  99992 56129  43.0016  78.9818 0001369 261.2938  98.7758 15.27578387192492

JSON: /api/v1/satellites/56129 · /tle

For live sub-satellite position, see the globe view (requires WebGL).

§ Visibility from observer

Set your observer location to see the next 7 days of passes ≥ 10°. The values pass through the URL so the page stays shareable.

No JS? Fill the form by hand. The geolocation button needs JavaScript.